EW8570 Weather Reports


time (UTC)temp
C
wind
direction
speed
KPH
gust
KPH
rain 1hr
cm
rain 24hr
cm
rain mn
cm
humidity
%
barometer
mb
20260510183420 28 227 4.8 17.7 0.00 0.00 0.00 36 1013.6
20260510182935 28 225 4.8 17.7 0.00 0.00 0.00 41 1013.6
20260510182453 28 223 4.8 17.7 0.00 0.00 0.00 41 1013.6
20260510181323 28 146 3.2 9.7 0.00 0.00 0.00 38 1013.5
20260510180848 28 186 3.2 12.9 0.00 0.00 0.00 41 1013.6
20260510175803 27 300 3.2 9.7 0.00 0.00 0.00 36 1013.9
20260510175254 27 229 1.6 12.9 0.00 0.00 0.00 41 1014.0
20260510174759 27 289 1.6 12.9 0.00 0.00 0.00 38 1014.1
20260510174259 27 146 3.2 8.0 0.00 0.00 0.00 41 1014.0
20260510173754 27 69 3.2 11.3 0.00 0.00 0.00 36 1014.1
20260510173300 27 221 4.8 12.9 0.00 0.00 0.00 39 1014.2
20260510173133 27 343 3.2 11.3 0.00 0.00 0.00 45 1014.4
20260510172807 27 296 4.8 12.9 0.00 0.00 0.00 40 1014.3
20260510172332 27 219 3.2 11.3 0.00 0.00 0.00 41 1014.3
20260510171251 27 244 3.2 12.9 0.00 0.00 0.00 39 1014.5
20260510170751 26 254 3.2 12.9 0.00 0.00 0.00 43 1014.5
20260510170254 26 5 3.2 6.4 0.00 0.00 0.00 39 1014.5
20260510170100 26 291 1.6 8.0 0.00 0.00 0.00 48 1014.5
20260510165803 26 305 4.8 12.9 0.00 0.00 0.00 42 1014.5
20260510165326 26 298 3.2 12.9 0.00 0.00 0.00 39 1014.5
20260510164253 26 219 3.2 9.7 0.00 0.00 0.00 39 1014.6
20260510163742 26 167 3.2 11.3 0.00 0.00 0.00 40 1014.6
20260510163243 26 223 3.2 11.3 0.00 0.00 0.00 44 1014.7
20260510163221 26 257 1.6 6.4 0.00 0.00 0.00 41 1014.8
20260510162754 26 212 3.2 12.9 0.00 0.00 0.00 42 1014.7
20260510162313 25 213 3.2 12.9 0.00 0.00 0.00 42 1014.7
20260510161727 26 237 3.2 12.9 0.00 0.00 0.00 39 1014.8
20260510161246 26 224 3.2 12.9 0.00 0.00 0.00 40 1014.7
20260510160217 26 321 1.6 9.7 0.00 0.00 0.00 43 1014.8
20260510155831 25 259 3.2 16.1 0.00 0.00 0.00 43 1014.8
20260510155657 25 116 3.2 9.7 0.00 0.00 0.00 44 1014.7
20260510155219 25 344 3.2 16.1 0.00 0.00 0.00 40 1014.8
20260510154135 25 88 3.2 11.3 0.00 0.00 0.00 41 1014.9
20260510153632 25 304 3.2 9.7 0.00 0.00 0.00 40 1014.9
20260510153623 24 238 3.2 16.1 0.00 0.00 0.00 48 1015.2
20260510153619 25 290 4.8 12.9 0.00 0.00 0.00 47 1015.3
20260510153153 25 323 4.8 12.9 0.00 0.00 0.00 41 1015.0
20260510152704 25 277 4.8 14.5 0.00 0.00 0.00 44 1015.0
20260510152215 25 261 4.8 14.5 0.00 0.00 0.00 42 1015.2
20260510151628 25 41 4.8 14.5 0.00 0.00 0.00 44 1015.2
20260510151140 25 319 4.8 14.5 0.00 0.00 0.00 46 1015.2
20260510150127 24 325 3.2 12.9 0.00 0.00 0.00 47 1015.2
20260510145228 15 224 0.0 3.2 0.00 0.00 0.00 82 1015.2
20260510145157 20 89 1.6 8.0 0.00 0.00 0.00 70 1015.2
20260510145124 19 218 0.0 3.2 0.00 0.00 0.00 69 1015.1
20260510145040 23 327 4.8 16.1 0.00 0.00 0.00 48 1015.2
20260510144917 18 232 1.6 4.8 0.00 0.00 0.00 72 1015.3
20260510144841 15 224 0.0 1.6 0.00 0.00 0.00 80 1015.2
20260510144544 23 281 6.4 17.7 0.00 0.00 0.00 49 1015.1
20260510144058 23 5 4.8 17.7 0.00 0.00 0.00 51 1015.0
20260510143625 22 12 4.8 12.9 0.00 0.00 0.00 52 1015.1
20260510143138 22 320 1.6 11.3 0.00 0.00 0.00 55 1015.0
20260510142645 21 19 1.6 6.4 0.00 0.00 0.00 63 1015.1
20260510142217 21 296 3.2 8.0 0.00 0.00 0.00 66 1015.2
20260510140839 15 223 0.0 3.2 0.00 0.00 0.00 84 1015.2
20260510140512 18 218 0.0 3.2 0.00 0.00 0.00 69 1015.2
20260510140032 18 218 1.6 4.8 0.00 0.00 0.00 69 1015.2
20260510135021 17 309 1.6 6.4 0.00 0.00 0.00 71 1015.2
20260510134537 17 306 1.6 6.4 0.00 0.00 0.00 72 1015.2
20260510134056 16 230 0.0 4.8 0.00 0.00 0.00 75 1015.2
20260510133612 16 246 0.0 3.2 0.00 0.00 0.00 78 1015.2
20260510131436 14 219 0.0 0.0 0.00 0.00 0.00 85 1015.2
20260510130938 13 272 0.0 1.6 0.00 0.00 0.00 87 1015.2
20260510130421 13 217 0.0 3.2 0.00 0.00 0.00 89 1015.2
20260510125923 13 198 0.0 3.2 0.00 0.00 0.00 90 1015.1
20260510125419 13 187 0.0 3.2 0.00 0.00 0.00 90 1015.1
20260510124923 13 187 0.0 1.6 0.00 0.00 0.00 90 1015.1
20260510124422 13 40 0.0 3.2 0.00 0.00 0.00 91 1015.1
20260510123919 12 40 0.0 3.2 0.00 0.00 0.00 91 1015.0
20260510123820 12 229 1.6 4.8 0.00 0.00 0.00 90 1014.9
20260510123441 12 355 0.0 3.2 0.00 0.00 0.00 91 1014.9
20260510122421 12 22 1.6 4.8 0.00 0.00 0.00 91 1014.9
20260510121917 11 123 0.0 3.2 0.00 0.00 0.00 91 1014.7
20260510121418 11 165 0.0 4.8 0.00 0.00 0.00 90 1014.7
20260510121014 10 32 0.0 3.2 0.00 0.00 0.00 90 1014.5
20260510120914 11 32 0.0 4.8 0.00 0.00 0.00 90 1014.7
20260510120449 10 32 0.0 3.2 0.00 0.00 0.00 90 1014.5
20260510115414 10 22 0.0 3.2 0.00 0.00 0.00 89 1014.5
20260510114914 10 23 0.0 3.2 0.00 0.00 0.00 90 1014.3
20260510114408 10 22 0.0 3.2 0.00 0.00 0.00 89 1014.2
20260510113913 9 348 0.0 3.2 0.00 0.00 0.00 89 1014.2
20260510113417 8 128 0.0 3.2 0.00 0.00 0.00 89 1014.1
20260510112910 8 227 0.0 1.6 0.00 0.00 0.00 89 1013.9
20260510112414 8 88 0.0 1.6 0.00 0.00 0.00 88 1013.7
20260510111915 8 88 0.0 3.2 0.00 0.00 0.00 88 1013.7
20260510111857 8 287 0.0 3.2 0.00 0.00 0.00 88 1013.5
20260510111442 8 88 0.0 3.2 0.00 0.00 0.00 88 1013.6
20260510110405 7 219 0.0 1.6 0.00 0.00 0.00 88 1013.4
20260510110330 7 258 0.0 0.0 0.00 0.00 0.00 88 1013.4
20260510105920 7 274 0.0 0.0 0.00 0.00 0.00 88 1013.4
20260510104845 7 258 0.0 1.6 0.00 0.00 0.00 87 1013.3
20260510104338 7 258 0.0 3.2 0.00 0.00 0.00 87 1013.2
20260510103841 7 256 0.0 3.2 0.00 0.00 0.00 87 1013.2
20260510103327 7 161 0.0 1.6 0.00 0.00 0.00 87 1013.1
20260510102825 8 161 0.0 1.6 0.00 0.00 0.00 88 1013.1
20260510102809 8 327 0.0 0.0 0.00 0.00 0.00 87 1012.8
20260510102353 8 206 0.0 1.6 0.00 0.00 0.00 88 1012.9
20260510101307 8 335 0.0 3.2 0.00 0.00 0.00 87 1012.8
20260510101252 8 248 1.6 3.2 0.00 0.00 0.00 87 1012.8
20260510100833 8 344 1.6 3.2 0.00 0.00 0.00 87 1012.8
20260510095748 8 246 0.0 1.6 0.00 0.00 0.00 87 1012.7
20260510095238 8 246 0.0 3.2 0.00 0.00 0.00 87 1012.7
20260510095058 8 229 0.0 0.0 0.00 0.00 0.00 87 1012.5
20260510094759 8 246 0.0 3.2 0.00 0.00 0.00 87 1012.6
20260510093721 8 229 0.0 0.0 0.00 0.00 0.00 87 1012.6
20260510093222 8 229 0.0 0.0 0.00 0.00 0.00 87 1012.6
20260510092713 8 229 0.0 0.0 0.00 0.00 0.00 87 1012.5
20260510092206 8 229 0.0 0.0 0.00 0.00 0.00 87 1012.4
20260510092037 8 229 0.0 0.0 0.00 0.00 0.00 87 1012.3
20260510091726 8 229 0.0 0.0 0.00 0.00 0.00 87 1012.4
20260510090645 9 229 0.0 0.0 0.00 0.00 0.00 87 1012.3
20260510090139 9 229 0.0 0.0 0.00 0.00 0.00 87 1012.3
20260510085640 9 229 0.0 0.0 0.00 0.00 0.00 87 1012.2
20260510085131 9 229 0.0 0.0 0.00 0.00 0.00 87 1012.1
20260510084624 9 229 0.0 3.2 0.00 0.00 0.00 88 1012.0
20260510084121 9 226 0.0 3.2 0.00 0.00 0.00 87 1012.0
20260510083609 9 226 1.6 6.4 0.00 0.00 0.00 87 1012.0
20260510083110 9 215 1.6 6.4 0.00 0.00 0.00 87 1012.0
20260510082559 9 188 0.0 3.2 0.00 0.00 0.00 87 1011.9
20260510082056 10 159 0.0 3.2 0.00 0.00 0.00 87 1011.8
20260510081546 10 159 0.0 3.2 0.00 0.00 0.00 87 1011.7
20260510081044 10 298 0.0 1.6 0.00 0.00 0.00 87 1011.6
20260510080552 10 298 0.0 1.6 0.00 0.00 0.00 87 1011.6
20260510080030 10 298 0.0 1.6 0.00 0.00 0.00 87 1011.5
20260510075522 10 298 0.0 1.6 0.00 0.00 0.00 87 1011.5
20260510075021 10 298 0.0 1.6 0.00 0.00 0.00 87 1011.5
20260510074515 10 298 0.0 1.6 0.00 0.00 0.00 87 1011.5
20260510074005 10 308 0.0 0.0 0.00 0.00 0.00 87 1011.4
20260510073457 10 45 0.0 0.0 0.00 0.00 0.00 87 1011.5
20260510073348 10 70 0.0 0.0 0.00 0.00 0.00 87 1011.4
20260510073024 10 70 0.0 0.0 0.00 0.00 0.00 87 1011.5
20260510072427 10 70 0.0 3.2 0.00 0.00 0.00 86 1011.3
20260510072014 10 70 0.0 0.0 0.00 0.00 0.00 87 1011.4
20260510070940 10 63 1.6 3.2 0.00 0.00 0.00 86 1011.3
20260510070422 10 63 1.6 3.2 0.00 0.00 0.00 86 1011.3
20260510065924 10 63 1.6 3.2 0.00 0.00 0.00 86 1011.4
20260510065421 10 63 1.6 4.8 0.00 0.00 0.00 86 1011.5
20260510064942 10 46 1.6 4.8 0.00 0.00 0.00 85 1011.5
20260510064420 10 355 0.0 4.8 0.00 0.00 0.00 85 1011.4
20260510063924 10 325 0.0 4.8 0.00 0.00 0.00 85 1011.4
20260510063419 10 259 0.0 0.0 0.00 0.00 0.00 85 1011.5
20260510062922 11 259 0.0 0.0 0.00 0.00 0.00 85 1011.5
20260510062413 11 259 0.0 0.0 0.00 0.00 0.00 85 1011.6
20260510061911 11 259 0.0 0.0 0.00 0.00 0.00 85 1011.7
20260510061807 11 259 0.0 0.0 0.00 0.00 0.00 85 1011.8
20260510061442 11 259 0.0 0.0 0.00 0.00 0.00 85 1011.8
20260510060415 11 259 0.0 0.0 0.00 0.00 0.00 85 1011.8
20260510055907 11 259 0.0 0.0 0.00 0.00 0.00 85 1011.7
20260510055411 11 259 0.0 0.0 0.00 0.00 0.00 84 1011.8
20260510054904 11 259 0.0 0.0 0.00 0.00 0.00 84 1011.9
20260510054410 11 259 0.0 0.0 0.00 0.00 0.00 84 1011.8
20260510053904 11 259 0.0 0.0 0.00 0.00 0.00 84 1011.8
20260510053413 11 259 0.0 0.0 0.00 0.00 0.00 84 1011.8
20260510052900 12 259 0.0 0.0 0.00 0.00 0.00 84 1011.9
20260510052352 12 259 0.0 0.0 0.00 0.00 0.00 84 1012.0
20260510051857 12 259 0.0 0.0 0.00 0.00 0.00 84 1012.0
20260510051351 12 259 0.0 0.0 0.00 0.00 0.00 83 1012.0
20260510050845 12 259 0.0 0.0 0.00 0.00 0.00 83 1011.9
20260510050348 12 259 0.0 0.0 0.00 0.00 0.00 83 1012.0
20260510045842 12 259 0.0 0.0 0.00 0.00 0.00 83 1012.0
20260510045347 12 259 0.0 0.0 0.00 0.00 0.00 83 1011.9
20260510044848 12 259 0.0 0.0 0.00 0.00 0.00 83 1011.9
20260510044345 12 259 0.0 0.0 0.00 0.00 0.00 83 1011.8
20260510043844 12 259 0.0 0.0 0.00 0.00 0.00 82 1011.9
20260510043349 13 259 0.0 0.0 0.00 0.00 0.00 82 1011.8
20260510043229 13 259 0.0 0.0 0.00 0.00 0.00 82 1011.8
20260510042900 13 259 0.0 0.0 0.00 0.00 0.00 82 1011.9
20260510042422 13 259 0.0 0.0 0.00 0.00 0.00 82 1011.8
20260510041557 13 259 0.0 0.0 0.00 0.00 0.00 82 1011.9
20260510041402 13 259 0.0 0.0 0.00 0.00 0.00 82 1011.8
20260510040923 13 259 0.0 0.0 0.00 0.00 0.00 82 1011.7
20260510035849 13 202 0.0 0.0 0.00 0.00 0.00 81 1011.9
20260510035815 14 202 0.0 0.0 0.00 0.00 0.00 82 1011.9
20260510035409 13 202 0.0 0.0 0.00 0.00 0.00 81 1011.9
20260510034348 14 202 0.0 0.0 0.00 0.00 0.00 81 1011.9
20260510034216 15 202 0.0 0.0 0.00 0.00 0.00 81 1011.7
20260510033856 14 202 0.0 0.0 0.00 0.00 0.00 81 1011.8
20260510033426 15 202 0.0 0.0 0.00 0.00 0.00 81 1011.8
20260510032343 15 202 0.0 0.0 0.00 0.00 0.00 81 1011.7
20260510031836 15 202 0.0 0.0 0.00 0.00 0.00 81 1011.7
20260510031342 15 202 0.0 0.0 0.00 0.00 0.00 81 1011.7
20260510030835 15 202 0.0 0.0 0.00 0.00 0.00 80 1011.6
20260510030633 16 202 0.0 0.0 0.00 0.00 0.00 79 1011.5
20260510030351 15 202 0.0 0.0 0.00 0.00 0.00 80 1011.6
20260510025904 16 202 0.0 0.0 0.00 0.00 0.00 80 1011.6
20260510025408 16 202 0.0 0.0 0.00 0.00 0.00 79 1011.6
20260510024318 16 202 0.0 0.0 0.00 0.00 0.00 79 1011.5
20260510023808 16 202 0.0 0.0 0.00 0.00 0.00 78 1011.4
20260510023302 16 202 0.0 0.0 0.00 0.00 0.00 78 1011.4
20260510022758 16 202 0.0 0.0 0.00 0.00 0.00 77 1011.3
20260510022249 17 202 0.0 0.0 0.00 0.00 0.00 77 1011.2
20260510021900 17 202 0.0 0.0 0.00 0.00 0.00 77 1011.1
20260510021750 17 202 0.0 0.0 0.00 0.00 0.00 77 1011.2
20260510021311 17 202 0.0 0.0 0.00 0.00 0.00 77 1011.2
20260510020224 18 202 0.0 0.0 0.00 0.00 0.00 76 1011.1
20260510015721 18 202 0.0 0.0 0.00 0.00 0.00 76 1011.0
20260510015216 18 202 0.0 0.0 0.00 0.00 0.00 75 1010.8
20260510014709 18 202 0.0 0.0 0.00 0.00 0.00 75 1010.7
20260510014201 18 202 0.0 0.0 0.00 0.00 0.00 74 1010.7
20260510013659 18 202 0.0 0.0 0.00 0.00 0.00 73 1010.6
20260510013147 19 202 0.0 0.0 0.00 0.00 0.00 73 1010.4
20260510012645 19 202 0.0 0.0 0.00 0.00 0.00 72 1010.3
20260510012142 19 202 0.0 0.0 0.00 0.00 0.00 72 1010.1
20260510011633 19 202 0.0 0.0 0.00 0.00 0.00 72 1010.1
20260510011143 19 202 0.0 0.0 0.00 0.00 0.00 72 1010.1
20260510010639 20 202 0.0 0.0 0.00 0.00 0.00 71 1010.0
20260510010138 20 202 0.0 0.0 0.00 0.00 0.00 70 1009.8
20260510005635 20 202 0.0 0.0 0.00 0.00 0.00 69 1009.7
20260510005129 20 202 0.0 0.0 0.00 0.00 0.00 69 1009.6
20260510004635 20 202 0.0 0.0 0.00 0.00 0.00 69 1009.4
20260510004129 20 197 0.0 0.0 0.00 0.00 0.00 69 1009.3
20260510003633 20 198 0.0 0.0 0.00 0.00 0.00 68 1009.4
20260510003142 21 197 0.0 0.0 0.00 0.00 0.00 68 1009.1
20260510002649 21 207 0.0 4.8 0.00 0.00 0.00 67 1009.2
20260510002149 21 205 1.6 6.4 0.00 0.00 0.00 66 1009.2
20260510001626 21 238 1.6 6.4 0.00 0.00 0.00 65 1009.2
20260510001130 21 244 1.6 4.8 0.00 0.00 0.00 63 1009.3
20260510000633 22 215 0.0 3.2 0.00 0.00 0.00 61 1009.1
20260510000619 22 242 0.0 3.2 0.00 0.00 0.00 61 1009.1
20260510000545 22 155 1.6 4.8 0.00 0.00 0.00 62 1009.0
20260510000151 22 5 0.0 3.2 0.00 0.00 0.00 58 1009.1
20260509235711 22 244 0.0 3.2 0.00 0.00 0.00 61 1009.0
20260509234704 22 198 1.6 3.2 0.00 0.00 0.00 61 1009.0
20260509233730 23 15 3.2 8.0 0.00 0.00 0.00 61 1008.9
20260509233615 22 178 1.6 4.8 0.00 0.00 0.00 62 1009.1
20260509233137 22 225 3.2 8.0 0.00 0.00 0.00 60 1009.0
20260509232315 23 200 1.6 3.2 0.00 0.00 0.00 61 1008.7
20260509232104 23 238 3.2 11.3 0.00 0.00 0.00 60 1008.8
20260509231620 23 229 1.6 11.3 0.00 0.00 0.00 60 1008.7
20260509230533 23 204 1.6 4.8 0.00 0.00 0.00 61 1008.6
20260509230157 23 222 0.0 3.2 0.00 0.00 0.00 61 1008.3
20260509230034 23 204 1.6 4.8 0.00 0.00 0.00 61 1008.6
20260509225601 23 217 1.6 4.8 0.00 0.00 0.00 61 1008.5
20260509224535 23 332 0.0 0.0 0.00 0.00 0.00 62 1008.2
20260509224029 23 332 0.0 3.2 0.00 0.00 0.00 60 1008.2
20260509223955 23 76 0.0 1.6 0.00 0.00 0.00 58 1008.4
20260509223605 23 340 0.0 3.2 0.00 0.00 0.00 59 1008.3
20260509222537 23 96 0.0 3.2 0.00 0.00 0.00 57 1008.3
20260509222036 23 111 0.0 3.2 0.00 0.00 0.00 59 1008.2
20260509221538 23 111 0.0 3.2 0.00 0.00 0.00 57 1008.3
20260509221034 23 112 0.0 1.6 0.00 0.00 0.00 56 1008.3
20260509220534 23 182 1.6 4.8 0.00 0.00 0.00 55 1008.3
20260509220034 23 159 1.6 4.8 0.00 0.00 0.00 55 1008.3
20260509215534 24 165 1.6 6.4 0.00 0.00 0.00 52 1008.2
20260509215156 26 246 1.6 4.8 0.00 0.00 0.00 50 1007.9
20260509215031 25 232 1.6 8.0 0.00 0.00 0.00 52 1008.2
20260509214602 25 262 1.6 8.0 0.00 0.00 0.00 50 1008.2
20260509213531 26 254 1.6 4.8 0.00 0.00 0.00 50 1007.8
20260509213034 25 240 1.6 4.8 0.00 0.00 0.00 53 1007.9
20260509212526 25 196 3.2 6.4 0.00 0.00 0.00 51 1007.9
20260509212033 25 189 3.2 9.7 0.00 0.00 0.00 55 1007.8
20260509211536 25 258 3.2 9.7 0.00 0.00 0.00 51 1007.9
20260509211206 24 191 3.2 8.0 0.00 0.00 0.00 54 1007.6
20260509211134 24 259 3.2 11.3 0.00 0.00 0.00 53 1007.6
20260509211029 25 292 3.2 9.7 0.00 0.00 0.00 52 1007.8
20260509210553 25 232 3.2 9.7 0.00 0.00 0.00 51 1007.8
20260509210117 25 206 3.2 11.3 0.00 0.00 0.00 52 1007.7
20260509205628 25 273 3.2 11.3 0.00 0.00 0.00 53 1007.6
20260509204612 24 259 3.2 11.3 0.00 0.00 0.00 53 1007.7
20260509204034 24 251 3.2 8.0 0.00 0.00 0.00 53 1007.8
20260509203550 24 154 3.2 9.7 0.00 0.00 0.00 53 1007.8
20260509203111 24 244 3.2 9.7 0.00 0.00 0.00 54 1007.7
20260509202020 24 172 3.2 14.5 0.00 0.00 0.00 56 1007.7
20260509201523 23 201 3.2 14.5 0.00 0.00 0.00 58 1007.7
20260509201024 23 206 3.2 9.7 0.00 0.00 0.00 58 1007.8
20260509200523 23 193 4.8 12.9 0.00 0.00 0.00 59 1007.8
20260509200024 23 243 4.8 12.9 0.00 0.00 0.00 57 1007.8
20260509195518 22 249 1.6 8.0 0.00 0.00 0.00 59 1007.9
20260509195021 22 117 1.6 4.8 0.00 0.00 0.00 56 1008.0
20260509194517 22 196 1.6 8.0 0.00 0.00 0.00 55 1008.3
20260509194017 23 215 1.6 8.0 0.00 0.00 0.00 56 1008.3
20260509193512 23 213 3.2 8.0 0.00 0.00 0.00 55 1008.3
20260509193012 23 223 4.8 17.7 0.00 0.00 0.00 55 1008.2
20260509192509 23 296 4.8 17.7 0.00 0.00 0.00 54 1008.3
20260509192011 23 273 3.2 8.0 0.00 0.00 0.00 53 1008.3
20260509191507 24 190 3.2 6.4 0.00 0.00 0.00 55 1008.2
20260509191004 24 138 1.6 8.0 0.00 0.00 0.00 55 1008.3
20260509190454 23 265 1.6 8.0 0.00 0.00 0.00 54 1008.3
20260509185950 24 244 1.6 9.7 0.00 0.00 0.00 57 1008.2
20260509185807 20 309 4.8 19.3 0.00 0.00 0.00 64 1010.0
20260509185725 21 171 3.2 11.3 0.00 0.00 0.00 68 1009.7
20260509185453 24 219 3.2 9.7 0.00 0.00 0.00 55 1008.2
20260509185009 23 205 3.2 8.0 0.00 0.00 0.00 60 1008.2
20260509184537 23 209 3.2 8.0 0.00 0.00 0.00 55 1008.2
20260509184310 23 37 4.8 11.3 0.00 0.00 0.00 56 1008.6